Location: Endfield
(51.6667°N, 0.0667°W)
Time: 11:56:25
(UTC+00:00)

Cosmos 1842 Rocket - Pass Details

Date: 19 May 2024
Orbit: 601 x 631 km, 82.5° (Epoch: 14 June)

Event Time Altitude Azimuth Distance (km) Brightness Sun altitude
Exits shadow 22:01:43 12° 198° (SSW) 1,888 5.6 -14.0°
Maximum altitude 22:05:51 70° 282° (WNW) 671 3.8 -14.3°
Drops below altitude 10° 22:10:17 10° 7° (N) 2,005 7.1 -14.6°
Sets 22:12:32 0° 10° (N) 2,911 8.0 -14.8°
